Flag for Germany Weather past 2 weeks in Seelze, Lower Saxony, Germany

Now
45 °F

Partly cloudy.


Feels Like: 37 °F
Forecast: 46 / 53 °F
Wind: 16 mph from Southwest

Location: Hannover

Current Time: Dec 21, 2014 at 7:06:14 PM

Latest Report: Dec 21, 2014 at 6:20 PM


Visibility: N/A

Pressure: 30.12 "Hg

Humidity: 81%

Dew point: 39 °F

Location of SeelzeLocation

Historic Weather in Seelze — Graph

°F

Seelze temperature yesterday

Maximum temperature yesterday: 45 °F (at 1:50 PM)
Minimum temperature yesterday: 39 °F (at 2:50 PM)
Average temperature yesterday: 42 °F

Past Weeks' High & Low Weather Summary

 TemperatureHumidityPressure
High54 °F (Dec 18, 2:20 PM)100% (Dec 6, 5:20 PM)30.36 "Hg (Dec 6, 5:20 PM)
Low32 °F (Dec 7, 5:20 AM)66% (Dec 7, 4:20 PM)29.33 "Hg (Dec 12, 12:50 PM)
Average41 °F86%29.88 "Hg
* Reported Dec 6 5:20 PM — Dec 21 5:50 PM, Seelze, Weather by CustomWeather, © 2014

Note: Actual official high and low records may vary slightly from our data, if they occured in-between our weather recording intervals... More about our weather records

Advertising

Seelze weather history for previous 24 hours

 ConditionsComfort  
Time TempWeatherWind HumidityBarometerVisibility
5:50 PM
Dec 21
45 °FPartly cloudy.18 mph81%30.12 "HgN/A
5:20 PM45 °FPassing clouds.17 mph81%30.12 "HgN/A
4:50 PM45 °FPassing clouds.16 mph81%30.12 "HgN/A
4:20 PM45 °FPassing clouds.16 mph81%30.15 "HgN/A
3:50 PM45 °FBroken clouds.16 mph81%30.15 "HgN/A
3:20 PM45 °FBroken clouds.13 mph81%30.18 "HgN/A
2:50 PM45 °FBroken clouds.14 mph81%30.18 "HgN/A
2:20 PM45 °FBroken clouds.16 mph81%30.18 "HgN/A
1:50 PM45 °FSprinkles. Broken clouds.18 mph81%30.21 "HgN/A
1:20 PM45 °FBroken clouds.16 mph81%30.21 "HgN/A
12:50 PM43 °FPartly sunny.16 mph87%30.24 "HgN/A
12:20 PM43 °FLight rain. Partly sunny.15 mph87%30.24 "HgN/A
11:50 AM43 °FPartly sunny.15 mph87%30.24 "HgN/A
11:20 AM43 °FPartly sunny.14 mph87%30.27 "HgN/A
10:50 AM43 °FPartly sunny.15 mph87%30.27 "HgN/A
10:20 AM41 °FPartly sunny.10 mph93%30.27 "HgN/A
9:50 AM41 °FPartly sunny.9 mph87%30.27 "HgN/A
9:20 AM39 °FBroken clouds.10 mph93%30.27 "HgN/A
8:50 AM39 °FPartly sunny.9 mph93%30.27 "HgN/A
8:20 AM39 °FPassing clouds.8 mph87%30.27 "HgN/A
7:50 AM39 °FPassing clouds.8 mph93%30.27 "HgN/A
7:20 AM39 °FPassing clouds.9 mph87%30.27 "HgN/A
6:50 AM41 °FPassing clouds.10 mph87%30.27 "HgN/A
6:20 AM41 °FPassing clouds.10 mph87%30.24 "HgN/A
5:50 AM41 °FSprinkles. Passing clouds.8 mph87%30.24 "HgN/A
5:20 AM41 °FPartly cloudy.12 mph87%30.24 "HgN/A
4:50 AM41 °FPartly cloudy.14 mph87%30.24 "HgN/A
4:20 AM41 °FPassing clouds.18 mph87%30.24 "HgN/A
3:50 AM41 °FPassing clouds.18 mph87%30.21 "HgN/A
3:20 AM41 °FSprinkles. Partly cloudy.17 mph87%30.21 "HgN/A
2:50 AM41 °FPassing clouds.18 mph81%30.21 "HgN/A
2:20 AM41 °FPassing clouds.18 mph87%30.18 "HgN/A
1:20 AM41 °FPassing clouds.16 mph81%30.15 "HgN/A
12:50 AM39 °FPassing clouds.15 mph87%30.15 "HgN/A
12:20 AM41 °FPartly cloudy.16 mph81%30.12 "HgN/A
11:50 PM
Dec 20
39 °FPartly cloudy.16 mph87%30.12 "HgN/A
11:20 PM39 °FPassing clouds.14 mph87%30.12 "HgN/A
10:20 PM39 °FPassing clouds.15 mph87%30.09 "HgN/A
9:50 PM39 °FPassing clouds.15 mph87%30.07 "HgN/A
9:20 PM39 °FPassing clouds.15 mph87%30.07 "HgN/A
8:50 PM39 °FPassing clouds.15 mph87%30.04 "HgN/A
8:20 PM39 °FPassing clouds.15 mph87%30.04 "HgN/A
7:50 PM39 °FPassing clouds.20 mph87%30.01 "HgN/A
7:20 PM39 °FPassing clouds.21 mph87%29.98 "HgN/A
Weather by CustomWeather, © 2014

See weather overviewHow to use our weather pages